Wind_Speed
43 43 43 41 40 41 40 43 40 37 36 35 36 32 31 31 32 31 30 30 31 33 34 35 36 34 32 30 30 30 30 31 31 31 32 34 36 37 38 39 42 44 46 47 50 51 55 54 55 57 57 59 62 64
46 43 44 40 40 39 37 32 31 33 35 32 30 31 32 33 31 30 29 30 32 34 34 35 33 30 29 29 31 30 31 31 31 33 34 37 38 40 42 44 46 47 48 49 52 56 56 58 61 61 63 64 66 67
38 37 38 33 31 31 32 32 32 30 28 28 32 35 34 31 30 30 29 31 33 32 31 31 31 31 31 33 32 32 31 31 33 35 37 39 42 44 47 49 49 48 50 52 55 56 60 62 62 63 64 64 64 62
28 30 31 32 30 35 33 31 31 31 32 32 32 32 29 30 30 32 32 32 34 35 34 33 33 32 32 31 31 31 33 33 35 38 42 44 45 46 49 50 50 53 55 57 59 60 61 60 62 63 62 59 53 48
30 30 31 32 33 31 30 32 31 31 30 29 29 29 32 32 32 33 34 36 36 36 35 36 35 30 30 32 33 35 35 38 42 44 46 47 49 50 51 52 53 57 58 60 59 61 61 58 59 55 48 41 36 31
33 32 32 30 30 27 28 26 29 29 30 33 34 34 34 33 34 34 34 35 36 35 34 34 32 32 33 35 37 38 41 44 46 47 49 49 51 52 53 53 56 61 60 58 57 58 55 48 42 37 33 30 28 27
30 30 29 30 31 31 30 31 32 32 34 34 35 35 33 31 32 34 35 35 35 35 34 35 35 34 36 39 41 43 46 47 49 51 51 51 52 53 54 53 61 59 58 55 52 48 39 35 30 30 29 26 24 23
31 31 30 30 31 31 31 33 33 34 34 33 32 31 31 32 34 34 34 36 37 36 36 38 38 39 42 44 46 48 49 51 52 52 52 52 53 54 54 58 56 56 54 45 40 31 28 27 25 25 23 22 22 22
26 30 32 35 33 30 32 34 35 34 32 32 32 33 34 36 38 39 40 39 41 42 41 41 43 45 47 49 50 52 53 53 54 53 53 54 52 51 56 54 53 49 41 34 23 24 24 22 23 23 23 22 19 17
31 30 30 34 32 33 36 35 35 35 35 37 39 40 41 41 42 42 42 43 44 45 46 46 48 49 50 51 53 54 54 52 54 54 54 53 48 51 53 50 47 38 30 22 19 24 22 23 24 21 19 18 19 21
34 32 32 31 32 35 35 36 36 37 39 41 41 43 45 46 46 46 46 47 48 49 49 49 50 50 50 50 50 52 51 53 55 52 50 45 42 48 45 40 33 24 21 19 22 21 21 22 22 21 20 21 22 24
32 32 31 31 33 35 37 36 37 39 41 42 44 46 46 47 48 49 49 51 52 52 51 50 49 48 48 49 50 52 52 53 52 50 42 32 35 34 30 25 19 18 17 18 18 18 19 19 19 22 23 26 27 27
31 30 31 33 37 38 39 39 39 41 43 44 45 46 47 48 51 51 52 53 52 52 51 51 51 51 51 52 54 53 52 52 50 41 25 19 21 17 17 17 18 21 22 22 20 21 21 23 23 23 23 28 28 27
32 34 35 37 38 41 42 43 46 46 47 48 50 50 50 51 53 54 54 52 50 50 51 52 53 53 54 55 53 52 53 51 43 25 10 10 22 24 19 18 19 21 20 20 21 23 21 19 21 21 24 28 28 28
34 34 33 36 39 42 44 46 47 47 48 50 53 54 56 56 53 52 50 49 51 52 52 51 53 55 53 53 51 50 47 45 32 13 12 23 26 25 23 21 17 15 18 21 21 22 22 22 22 24 28 28 27 27
35 38 40 42 44 46 47 48 50 50 53 54 56 58 55 54 52 51 51 52 53 50 50 49 49 52 49 48 46 44 40 33 19 20 24 27 25 24 22 24 23 22 22 22 23 23 23 24 25 25 23 24 27 28
38 41 43 44 46 49 50 51 54 56 58 60 61 56 51 50 51 52 52 50 51 48 39 37 38 51 44 44 45 39 26 22 25 29 31 34 33 35 32 25 23 24 26 28 26 25 25 25 23 22 22 25 22 18
41 42 44 47 48 50 52 53 55 56 55 54 52 50 50 52 53 52 48 48 48 49 49 47 46 45 42 34 22 19 29 34 38 40 39 36 36 36 35 30 27 27 30 29 27 26 26 24 23 22 20 16 12 11
44 45 45 46 46 47 49 49 49 48 48 45 44 48 52 55 52 49 48 47 46 42 38 35 34 26 20 23 29 31 34 35 34 33 31 29 30 31 31 32 30 29 28 27 27 25 24 24 23 20 14 10 7 6
39 40 42 43 41 38 38 39 39 40 39 42 45 45 43 37 33 32 29 27 23 20 19 13 13 18 22 25 28 26 28 30 33 31 28 28 29 31 28 27 25 24 25 27 27 25 24 24 23 17 13 8 3 3
36 37 34 32 30 29 29 29 29 30 30 25 21 19 14 13 11 10 12 16 15 13 14 14 14 14 18 20 23 26 26 28 31 35 35 34 32 31 28 26 27 31 28 27 28 26 25 24 23 19 14 10 7 6
29 24 19 18 18 18 16 14 9 4 6 10 8 7 8 9 11 12 12 13 12 15 17 13 15 19 21 24 26 28 26 20 21 24 26 31 34 33 31 34 35 33 32 31 30 26 26 24 24 22 17 14 13 12
14 12 12 14 13 12 8 5 4 4 5 10 14 15 15 17 17 15 12 15 16 16 14 17 18 19 22 25 27 25 22 23 26 28 31 33 30 31 33 35 37 36 35 34 31 26 25 26 25 23 19 16 16 16
9 10 12 13 12 11 11 10 8 9 8 10 14 17 18 18 19 20 18 16 19 18 17 17 17 20 22 24 27 24 22 22 25 30 34 31 32 38 30 29 31 33 33 34 26 25 27 28 26 23 20 18 19 20
11 13 12 12 14 15 14 14 14 14 15 18 15 17 16 15 17 21 24 24 23 22 19 21 23 23 25 25 26 27 26 24 26 28 31 29 32 35 21 21 22 22 22 22 21 24 28 28 26 23 22 22 23 23
13 11 9 10 11 13 15 17 19 20 19 22 22 21 21 21 20 21 22 22 22 24 25 25 24 26 27 27 26 26 26 25 25 26 28 29 28 30 24 18 18 17 18 18 18 24 28 27 25 25 26 26 27 28
14 11 13 15 17 18 17 18 20 21 22 25 23 23 26 29 29 28 28 27 26 25 25 26 27 28 27 26 26 27 28 26 26 26 27 26 23 23 21 18 18 19 20 20 22 25 26 25 25 25 27 29 31 33
14 14 17 20 20 22 23 22 20 21 23 25 27 28 31 29 25 23 23 23 23 23 24 25 25 26 26 26 27 28 27 27 27 26 26 27 23 18 17 14 13 13 15 18 22 25 26 26 27 29 31 33 35 37
17 18 17 15 14 15 18 21 20 21 25 28 29 28 28 24 22 25 27 28 28 27 26 26 26 27 28 29 30 30 29 27 27 25 24 25 26 23 18 18 17 18 19 21 25 27 29 31 32 34 36 37 39 42
18 19 17 15 14 15 15 20 19 20 24 26 27 28 27 29 34 36 34 33 34 35 35 35 33 32 30 28 28 30 29 27 25 24 23 24 25 26 24 22 24 25 26 27 29 31 33 35 37 39 41 44 46 49
23 24 23 19 16 19 22 18 17 18 19 21 23 25 26 27 29 31 30 29 30 30 31 32 33 32 32 33 35 35 33 31 29 26 25 25 27 28 28 28 27 26 28 31 34 36 38 40 42 43 45 46 48 48
22 23 25 23 23 21 20 19 19 18 17 19 20 22 27 30 32 28 24 25 27 27 27 29 30 30 28 27 26 26 26 27 29 31 32 33 32 30 31 32 31 31 32 34 36 36 37 38 40 42 43 45 46 47
27 25 23 21 21 21 19 19 17 17 20 24 26 28 32 32 31 28 23 22 23 24 25 25 25 25 27 28 29 29 30 31 32 32 32 31 30 31 31 32 33 35 37 37 37 39 40 40 41 42 43 44 46 47
Wind_Direction
236 235 236 241 242 243 246 254 256 260 264 267 270 271 276 278 277 279 284 286 287 286 283 281 283 284 286 285 284 283 282 282 281 282 284 287 288 289 290 291 294 294 295 295 295 296 295 297 297 296 295 292 290 289
237 238 239 241 246 247 249 248 259 264 264 266 266 271 275 279 279 281 285 288 286 285 284 284 285 286 287 288 284 281 280 279 281 284 285 287 288 289 290 292 292 293 293 295 297 299 300 299 297 296 296 293 291 289
234 238 241 243 245 245 246 258 259 264 265 272 271 273 275 276 278 278 285 288 288 283 283 284 282 283 285 285 285 283 281 281 283 284 286 287 289 290 292 293 293 292 295 298 298 301 297 298 297 295 293 291 290 288
233 236 242 246 246 248 250 253 259 260 266 268 271 271 271 276 277 278 281 282 284 282 279 283 285 285 285 283 282 279 279 282 283 285 287 288 290 291 293 294 295 297 298 300 300 299 300 298 297 296 295 294 290 288
234 235 235 245 254 258 261 262 257 265 266 265 267 272 273 272 279 278 276 281 284 285 285 287 287 281 282 282 279 279 281 283 286 288 288 289 291 294 295 297 298 298 300 300 303 300 299 299 298 297 294 293 295 296
231 242 249 249 248 254 260 261 261 265 265 265 270 276 279 276 278 277 279 281 283 285 285 285 283 283 283 279 279 281 285 287 288 288 289 291 293 295 297 298 298 300 303 304 300 300 302 300 295 292 295 295 294 290
242 239 250 250 257 258 253 255 259 261 266 276 280 280 277 276 278 280 280 281 281 283 282 281 278 279 278 278 282 287 288 289 289 289 290 292 294 296 299 301 300 306 305 303 303 303 299 293 294 291 293 292 288 286
242 247 245 246 252 256 258 260 261 265 273 278 276 277 277 279 280 280 281 283 283 282 280 280 281 279 279 283 287 288 289 290 289 289 290 293 296 298 301 301 308 304 302 304 302 296 294 297 295 295 298 294 282 281
244 240 243 248 249 254 262 264 266 269 273 273 275 276 277 280 282 284 284 285 283 282 282 281 280 281 284 286 287 288 290 288 290 291 293 295 298 301 302 308 303 300 304 300 291 295 296 294 296 290 288 283 285 286
251 249 262 257 253 259 263 266 266 267 270 273 277 279 280 282 282 285 285 285 285 283 281 280 282 284 286 288 289 289 289 289 291 294 296 298 301 302 307 303 299 301 298 291 289 300 291 292 296 288 283 288 286 284
250 255 257 254 257 261 264 267 268 272 275 277 279 280 281 282 284 285 287 287 285 282 283 283 284 285 286 286 287 287 289 290 293 297 298 305 305 304 301 296 299 302 299 286 295 294 295 289 293 291 292 292 290 289
250 248 249 251 256 262 267 273 278 278 280 281 282 281 283 286 287 289 290 288 285 284 283 282 283 284 284 285 287 288 289 293 295 301 308 306 291 294 289 291 295 300 305 306 311 291 289 290 295 292 291 290 286 288
241 244 250 256 262 268 273 273 272 273 276 278 282 287 291 291 292 293 289 287 285 285 285 285 285 285 286 287 288 291 294 296 300 309 309 288 276 287 300 300 289 284 291 299 302 304 298 290 291 291 289 288 292 293
247 253 256 262 269 271 270 271 277 282 287 289 292 292 291 292 290 289 286 285 285 284 284 286 288 291 291 290 292 293 295 296 302 313 262 270 292 281 290 288 286 286 292 292 291 295 284 279 282 281 281 286 291 292
254 258 263 269 273 274 277 279 282 285 289 289 289 290 291 290 287 286 286 288 288 288 289 289 287 286 286 286 289 292 294 298 309 266 236 284 295 297 292 277 284 279 278 285 289 291 289 281 286 286 286 291 294 294
259 265 268 270 274 277 279 281 282 283 283 284 284 285 285 284 286 286 285 284 284 285 285 284 283 282 283 285 288 291 291 303 304 277 271 285 290 291 291 278 278 290 271 277 279 284 282 288 285 288 290 287 289 295
261 265 268 271 272 274 277 280 281 281 282 284 285 287 289 288 285 284 282 283 285 285 282 278 278 284 290 288 294 296 292 299 276 268 271 274 277 279 283 284 278 281 285 277 272 276 279 287 288 287 284 288 298 296
263 266 269 273 276 277 279 281 281 283 285 286 287 287 284 281 278 276 276 274 272 273 275 278 277 279 282 296 315 306 290 288 283 283 283 284 281 278 275 275 271 280 286 278 278 279 282 282 279 281 289 284 279 297
267 270 274 276 277 278 278 279 280 283 284 283 280 276 274 275 278 279 277 274 271 273 277 285 288 303 302 297 298 289 283 286 288 286 284 283 282 279 276 282 274 276 272 273 278 278 280 275 275 277 259 255 272 296
270 272 274 275 278 280 282 284 283 282 280 276 276 277 284 287 284 281 277 275 277 285 292 304 316 314 294 282 281 292 296 291 288 286 282 278 274 278 280 280 268 264 271 272 272 274 270 263 269 241 228 233 246 322
276 278 283 288 289 288 289 289 284 280 276 274 280 287 286 296 301 281 280 285 296 310 305 300 292 274 282 308 305 296 304 300 293 289 288 285 284 282 268 267 265 267 279 276 270 266 255 257 245 225 218 222 230 258
279 285 287 293 301 318 317 322 312 320 290 256 258 273 270 263 264 275 282 289 297 290 293 306 291 292 294 302 308 306 302 306 317 312 298 287 285 283 276 267 267 266 273 278 269 257 246 245 223 220 217 226 244 258
272 282 299 310 319 325 333 350 333 308 261 252 269 279 272 272 283 272 286 307 298 294 294 302 301 301 301 304 310 305 292 296 313 311 307 308 302 296 283 269 264 261 265 272 265 246 241 226 218 221 226 239 250 258
277 295 306 311 308 304 297 291 282 280 295 295 290 287 289 281 279 270 284 300 300 292 281 288 303 313 309 307 316 312 302 303 308 308 311 310 303 312 295 272 262 257 255 255 248 239 226 217 220 227 236 246 254 259
274 292 306 306 300 293 281 271 281 279 276 272 286 295 294 291 290 285 288 286 287 292 289 283 288 300 311 310 311 312 308 304 306 305 310 305 309 321 304 285 276 258 245 238 238 229 219 219 227 234 244 250 255 261
274 294 287 281 276 275 273 266 262 267 284 281 275 285 284 286 293 301 308 305 292 284 280 281 291 297 302 301 299 304 312 307 306 307 311 307 306 312 310 286 280 270 248 235 236 225 221 225 233 244 251 255 260 265
276 283 272 277 269 261 262 263 261 260 270 276 277 281 281 283 286 294 300 294 295 293 288 288 294 296 297 292 293 298 300 308 307 307 309 311 305 308 301 291 274 262 254 236 225 223 226 234 246 257 264 269 272 274
278 262 268 281 291 284 281 278 266 264 269 271 273 274 279 293 302 302 302 299 300 303 304 304 302 293 284 283 286 288 297 302 310 305 302 309 311 300 300 300 282 259 241 228 225 228 237 247 254 260 266 272 276 279
261 263 274 283 291 306 299 284 278 277 276 272 276 286 295 303 307 304 301 299 301 303 305 306 303 294 291 291 293 294 294 297 302 302 294 297 305 308 292 285 283 280 269 257 250 249 251 256 261 266 270 275 279 282
248 257 266 277 286 300 299 298 307 296 283 283 288 290 292 296 295 293 290 289 289 288 288 293 293 290 287 288 298 302 298 296 295 303 300 292 292 299 305 294 278 276 274 272 271 271 271 271 273 275 278 281 284 286
247 252 262 275 285 287 286 294 306 312 313 305 299 297 298 298 302 300 295 291 289 288 290 294 293 291 291 287 286 290 290 288 286 288 297 299 291 287 289 292 291 289 283 278 276 275 276 277 278 280 281 283 285 288
256 259 263 268 277 277 268 276 284 295 297 299 302 307 313 314 316 315 297 284 283 291 300 303 302 303 303 302 298 294 290 286 286 285 286 289 292 291 283 280 283 285 285 284 283 282 281 282 283 284 286 287 289 289
259 263 262 268 268 256 260 280 290 300 300 299 299 304 307 312 317 314 309 308 300 295 300 302 302 300 296 295 294 293 292 291 290 289 289 290 289 288 287 283 282 284 285 285 283 282 282 283 285 286 287 287 289 289
Height
5705 5709 5713 5717 5719 5723 5725 5728 5731 5731 5731 5731 5732 5732 5731 5731 5731 5731 5730 5728 5728 5726 5724 5723 5722 5721 5719 5716 5714 5713 5712 5709 5708 5706 5704 5702 5700 5697 5695 5692 5689 5687 5683 5681 5676 5671 5667 5663 5658 5655 5648 5641 5635 5630
5697 5701 5705 5707 5711 5714 5718 5719 5721 5721 5722 5723 5723 5722 5722 5721 5721 5721 5721 5719 5717 5716 5715 5714 5712 5710 5709 5707 5705 5703 5701 5699 5698 5696 5694 5691 5689 5686 5683 5680 5677 5674 5670 5667 5662 5655 5649 5645 5640 5634 5629 5623 5615 5609
5689 5692 5696 5700 5703 5705 5707 5710 5711 5712 5713 5712 5713 5713 5712 5712 5712 5712 5710 5709 5708 5706 5704 5703 5702 5700 5698 5697 5695 5694 5692 5690 5688 5686 5683 5680 5677 5674 5670 5667 5663 5659 5654 5650 5644 5640 5632 5625 5619 5614 5608 5601 5594 5589
5680 5683 5688 5691 5693 5696 5698 5700 5702 5702 5702 5703 5704 5704 5703 5703 5703 5702 5701 5700 5699 5697 5695 5693 5691 5690 5688 5687 5685 5684 5682 5680 5678 5674 5671 5667 5665 5662 5657 5653 5649 5643 5639 5635 5629 5620 5615 5606 5600 5593 5587 5581 5575 5571
5671 5676 5678 5681 5685 5687 5688 5691 5693 5693 5693 5693 5694 5694 5694 5694 5692 5691 5691 5689 5688 5687 5684 5682 5680 5679 5678 5676 5675 5673 5672 5669 5666 5661 5658 5654 5651 5648 5643 5638 5631 5626 5621 5617 5613 5603 5597 5589 5581 5574 5570 5566 5562 5560
5663 5666 5670 5673 5676 5678 5680 5682 5683 5684 5685 5685 5685 5684 5683 5682 5682 5681 5680 5679 5676 5674 5673 5671 5671 5668 5667 5666 5664 5662 5660 5657 5653 5649 5644 5640 5636 5633 5629 5624 5614 5609 5604 5598 5593 5585 5579 5572 5566 5561 5559 5556 5554 5551
5654 5657 5661 5664 5667 5669 5670 5672 5674 5675 5676 5674 5673 5673 5673 5672 5672 5672 5671 5668 5666 5664 5661 5660 5658 5658 5656 5654 5653 5650 5647 5642 5639 5635 5630 5626 5622 5618 5613 5606 5598 5594 5587 5579 5574 5571 5566 5559 5558 5553 5551 5548 5546 5544
5646 5649 5652 5656 5658 5660 5662 5663 5664 5665 5664 5663 5664 5664 5663 5663 5662 5662 5660 5658 5656 5652 5650 5649 5648 5648 5645 5643 5640 5636 5632 5628 5624 5619 5615 5611 5607 5601 5599 5590 5585 5576 5571 5566 5562 5558 5555 5552 5549 5546 5543 5541 5539 5537
5638 5641 5645 5647 5649 5651 5652 5654 5655 5655 5654 5655 5655 5654 5654 5654 5652 5652 5649 5646 5644 5643 5638 5637 5636 5635 5633 5629 5626 5622 5617 5612 5609 5604 5599 5595 5591 5587 5583 5578 5569 5562 5559 5555 5552 5549 5546 5544 5542 5539 5537 5535 5533 5531
5630 5633 5635 5637 5639 5641 5643 5644 5645 5645 5646 5646 5646 5645 5644 5643 5640 5640 5637 5634 5631 5629 5626 5625 5623 5622 5619 5615 5610 5607 5602 5598 5593 5589 5582 5578 5576 5570 5567 5562 5555 5551 5549 5547 5545 5543 5540 5537 5535 5533 5531 5529 5527 5525
5621 5623 5625 5627 5629 5631 5633 5635 5636 5635 5634 5635 5633 5633 5632 5630 5628 5625 5622 5620 5617 5614 5613 5610 5608 5605 5601 5599 5594 5591 5585 5581 5578 5575 5566 5563 5560 5556 5551 5547 5545 5544 5541 5540 5539 5536 5534 5531 5529 5527 5525 5523 5521 5518
5611 5613 5615 5618 5620 5622 5623 5623 5623 5622 5623 5623 5622 5620 5619 5616 5613 5610 5607 5605 5602 5599 5599 5596 5594 5590 5587 5583 5580 5576 5572 5567 5564 5558 5553 5549 5543 5542 5540 5538 5537 5537 5536 5534 5532 5529 5527 5524 5522 5520 5518 5516 5513 5511
5602 5604 5606 5608 5609 5611 5611 5611 5611 5611 5610 5608 5608 5606 5605 5603 5598 5596 5592 5589 5586 5583 5582 5580 5577 5574 5570 5567 5563 5559 5555 5552 5548 5547 5542 5537 5535 5534 5532 5530 5530 5530 5529 5527 5525 5522 5520 5518 5515 5513 5510 5507 5505 5502
5592 5595 5596 5598 5599 5599 5600 5599 5599 5598 5596 5596 5594 5593 5590 5587 5583 5579 5575 5572 5570 5567 5564 5561 5558 5557 5553 5549 5546 5543 5541 5538 5537 5538 5535 5532 5527 5525 5524 5523 5522 5521 5520 5518 5516 5514 5512 5510 5507 5505 5502 5498 5496 5493
5583 5585 5585 5586 5586 5586 5586 5585 5584 5583 5581 5580 5578 5577 5575 5573 5569 5565 5560 5555 5552 5549 5547 5544 5542 5540 5537 5534 5532 5529 5526 5527 5528 5526 5524 5519 5517 5515 5515 5515 5514 5512 5511 5510 5508 5506 5504 5502 5500 5497 5494 5491 5488 5485
5573 5574 5574 5574 5574 5573 5572 5570 5570 5569 5567 5567 5564 5562 5561 5559 5554 5549 5543 5538 5535 5532 5531 5529 5526 5523 5523 5521 5519 5516 5516 5517 5517 5514 5512 5509 5508 5506 5505 5505 5506 5504 5503 5501 5499 5498 5496 5493 5491 5489 5487 5483 5480 5477
5561 5562 5562 5562 5561 5560 5558 5557 5554 5552 5550 5550 5549 5546 5543 5540 5536 5530 5525 5522 5519 5518 5517 5515 5514 5509 5508 5505 5506 5506 5507 5508 5504 5502 5502 5499 5497 5496 5496 5496 5496 5495 5494 5492 5490 5488 5487 5485 5483 5481 5478 5476 5473 5471
5550 5550 5549 5548 5547 5545 5542 5540 5537 5535 5534 5534 5532 5528 5524 5521 5517 5514 5511 5508 5505 5504 5503 5503 5501 5499 5498 5499 5500 5499 5497 5495 5491 5490 5490 5490 5487 5485 5486 5486 5485 5484 5483 5482 5481 5480 5479 5477 5475 5473 5471 5470 5469 5467
5538 5537 5536 5534 5532 5529 5527 5526 5523 5521 5520 5518 5515 5509 5505 5503 5502 5500 5496 5493 5492 5491 5490 5492 5489 5489 5490 5492 5490 5489 5486 5483 5480 5480 5478 5477 5475 5474 5473 5473 5472 5472 5472 5471 5471 5471 5470 5469 5468 5466 5466 5465 5464 5463
5526 5524 5522 5521 5518 5515 5512 5511 5508 5506 5504 5501 5497 5493 5491 5490 5487 5485 5484 5484 5484 5484 5485 5484 5484 5483 5483 5482 5480 5479 5477 5474 5470 5468 5467 5466 5464 5463 5462 5462 5462 5461 5461 5461 5461 5461 5461 5460 5460 5460 5460 5460 5459 5458
5512 5511 5509 5506 5504 5503 5500 5496 5493 5492 5489 5487 5486 5486 5485 5484 5482 5481 5481 5481 5481 5481 5480 5479 5478 5477 5476 5476 5474 5471 5469 5465 5462 5458 5457 5456 5455 5454 5453 5452 5452 5451 5452 5452 5451 5451 5451 5452 5452 5453 5454 5454 5454 5454
5501 5501 5500 5498 5495 5492 5489 5486 5485 5484 5484 5485 5485 5484 5483 5482 5480 5479 5479 5478 5478 5477 5476 5475 5474 5472 5471 5469 5466 5462 5460 5457 5454 5451 5448 5446 5445 5444 5443 5441 5440 5441 5440 5440 5440 5441 5442 5443 5444 5446 5447 5448 5448 5448
5494 5494 5493 5491 5489 5487 5487 5485 5484 5484 5484 5483 5482 5481 5480 5479 5478 5476 5475 5475 5473 5472 5470 5469 5467 5466 5464 5462 5458 5455 5452 5450 5446 5443 5440 5437 5434 5431 5428 5427 5427 5427 5429 5430 5429 5431 5432 5434 5437 5439 5440 5441 5441 5441
5486 5486 5486 5485 5484 5484 5483 5482 5481 5480 5479 5478 5477 5476 5474 5473 5472 5471 5471 5470 5468 5466 5465 5464 5462 5460 5457 5454 5451 5448 5445 5443 5440 5436 5431 5427 5423 5418 5412 5411 5412 5413 5415 5417 5419 5422 5424 5427 5430 5432 5433 5433 5434 5433
5482 5481 5481 5480 5478 5478 5477 5477 5475 5474 5473 5472 5471 5470 5469 5467 5466 5466 5465 5462 5461 5460 5459 5457 5456 5453 5451 5448 5444 5441 5437 5435 5432 5429 5424 5420 5415 5410 5405 5403 5403 5403 5405 5408 5411 5414 5418 5420 5423 5424 5425 5425 5425 5425
5475 5476 5475 5474 5472 5471 5470 5469 5469 5468 5467 5466 5465 5464 5463 5462 5461 5460 5457 5455 5454 5452 5451 5449 5448 5446 5443 5440 5437 5435 5431 5428 5425 5422 5418 5414 5410 5406 5402 5399 5399 5399 5400 5403 5405 5408 5411 5413 5415 5416 5416 5416 5416 5415
5469 5469 5468 5466 5465 5463 5462 5461 5461 5461 5460 5459 5458 5457 5454 5453 5452 5453 5451 5448 5446 5444 5443 5441 5439 5437 5435 5432 5429 5427 5424 5421 5418 5415 5412 5408 5405 5401 5398 5396 5395 5395 5395 5396 5399 5402 5405 5406 5407 5408 5408 5407 5406 5405
5463 5461 5460 5459 5458 5457 5455 5455 5454 5453 5452 5451 5450 5448 5445 5445 5446 5444 5441 5440 5438 5436 5434 5432 5430 5427 5425 5423 5421 5418 5416 5414 5411 5408 5405 5402 5400 5398 5395 5393 5392 5391 5392 5393 5394 5396 5398 5398 5398 5398 5397 5397 5395 5393
5455 5454 5454 5454 5452 5451 5450 5449 5448 5447 5446 5443 5441 5441 5440 5439 5439 5436 5434 5432 5430 5428 5426 5424 5421 5419 5417 5415 5412 5410 5408 5406 5404 5401 5398 5396 5394 5392 5390 5389 5389 5388 5388 5388 5389 5389 5389 5389 5388 5387 5386 5385 5383 5380
5447 5447 5447 5447 5447 5446 5444 5441 5440 5439 5437 5436 5435 5434 5433 5432 5430 5426 5424 5422 5420 5418 5416 5414 5412 5410 5408 5406 5404 5401 5399 5397 5395 5393 5391 5389 5387 5385 5384 5382 5382 5381 5381 5381 5380 5380 5379 5378 5377 5376 5374 5372 5369 5365
5440 5440 5440 5440 5441 5440 5438 5436 5434 5432 5431 5429 5428 5426 5424 5421 5419 5415 5412 5410 5408 5406 5405 5403 5400 5399 5397 5395 5393 5392 5390 5388 5386 5385 5383 5381 5379 5378 5376 5375 5373 5372 5371 5370 5369 5368 5367 5365 5364 5361 5359 5356 5353 5349
5432 5432 5432 5433 5433 5432 5431 5430 5429 5428 5426 5424 5422 5420 5417 5413 5409 5407 5403 5400 5398 5397 5396 5394 5391 5388 5386 5384 5382 5380 5379 5378 5376 5375 5373 5371 5369 5368 5366 5365 5364 5362 5361 5359 5357 5356 5354 5351 5349 5346 5344 5341 5337 5333
5424 5424 5423 5424 5424 5424 5424 5423 5422 5422 5420 5418 5416 5413 5409 5405 5402 5398 5395 5392 5391 5390 5388 5386 5383 5380 5378 5376 5374 5372 5370 5368 5366 5364 5362 5360 5358 5356 5354 5353 5352 5350 5349 5346 5344 5342 5340 5337 5335 5332 5328 5325 5321 5318